User: anonymous   Login
Location: Unspecified
(0.0000°N, 0.0000°E)
Time: 09:50:32
(UTC+00:00)
Language:

Hipparcos - Orbit

View from above orbital plane
View from above orbital plane
View from above satellite
View from above satellite

Ground track
Ground track

The orbit data is extracted from the following two-line orbital elements,

1 20169U 89062B   18347.62244257 -.00000035 +00000-0 +65507-4 0  9994
2 20169 006.8661 303.3871 7180619 050.7574 353.5264 02.26151006207327
Epoch (UTC): 13 December 2018 14:56:19
Eccentricity: 0.7180619
inclination: 6.8661°
perigee height: 534 km
apogee height: 35743 km
right ascension of ascending node: 303.3871°
argument of perigee: 50.7574°
revolutions per day: 2.26151006
mean anomaly at epoch: 353.5264°
orbit number at epoch: 20732

The dashed part of the orbit path shows where the satellite is in the earth's shadow,  

DLR